Santa Monica, CA

3:01 PM PDT on May 26, 2017 (GMT -0700)
Santa Monica Municipal

Weather History for KSMO - October, 2013

Change the Weather History Date:

Wednesday, October 30, 2013

  Actual Average Record
Temperature  
Mean Temperature 58 °F -  
Max Temperature 68 °F 74 °F 95 °F (1962)
Min Temperature 51 °F 53 °F 41 °F (1946)
Degree Days  
Heating Degree Days 6    
Growing Degree Days 8 (Base 50)    
Moisture  
Dew Point 48 °F    
Average Humidity 69    
Maximum Humidity 83    
Minimum Humidity 47    
Precipitation  
Precipitation 0.00 in - - ()
Sea Level Pressure  
Sea Level Pressure 30.03 in    
Wind  
Wind Speed 2 mph (WSW)    
Max Wind Speed 9 mph    
Max Gust Speed -    
Visibility 10 miles    
Events      
Averages and records for this station are not official NWS values.
T = Trace of Precipitation, MM = Missing Value Source: NWS Daily Summary

Daily Weather History Graph

Daily Weather History Graph

Search for Another Location

Airport or City:

Trip Planner

Search our weather history database for the weather conditions in past years. The results will help you decide how hot, cold, wet, or windy it might be!

Date:

Astronomy

Oct. 30, 2013 Rise Set
Actual Time 7:11 AM PDT 6:02 PM PDT
Civil Twilight 6:46 AM PDT 6:28 PM PDT
Nautical Twilight 6:16 AM PDT 6:57 PM PDT
Astronomical Twilight 5:47 AM PDT 7:26 PM PDT
Moon 3:15 AM PDT (10/30) 3:41 PM PDT (10/30)
Length of Visible Light 11h 42m
Length of Day
10h 50m
Waning Crescent, 16% of the Moon is Illuminated
Oct 30
Waning Crescent
Nov 3
New
Nov 9
First Quarter
Nov 17
Full
Nov 25
Last Quarter

Hourly Weather History & Observations

Time (PDT) Temp. Dew Point Humidity Pressure Visibility Wind Dir Wind Speed Gust Speed Precip Events Conditions
12:51 AM 54.0 °F 45.0 °F 72% 30.01 in 10.0 mi Calm Calm - N/A   Clear
1:51 AM 52.0 °F 45.0 °F 77% 30.01 in 10.0 mi Calm Calm - N/A   Clear
2:51 AM 51.1 °F 45.0 °F 80% 30.01 in 10.0 mi Calm Calm - N/A   Clear
3:51 AM 52.0 °F 45.0 °F 77% 30.00 in 10.0 mi Calm Calm - N/A   Clear
4:51 AM 51.1 °F 46.0 °F 83% 30.01 in 10.0 mi Calm Calm - N/A   Clear
5:51 AM 52.0 °F 46.0 °F 80% 30.02 in 10.0 mi North 3.5 mph - N/A   Clear
6:51 AM 51.1 °F 45.0 °F 80% 30.04 in 10.0 mi ENE 3.5 mph - N/A   Clear
7:51 AM 53.1 °F 46.0 °F 77% 30.05 in 10.0 mi Calm Calm - N/A   Clear
8:51 AM 59.0 °F 48.0 °F 67% 30.06 in 10.0 mi ENE 4.6 mph - N/A   Clear
9:51 AM 61.0 °F 48.0 °F 62% 30.07 in 10.0 mi Variable 3.5 mph - N/A   Clear
10:51 AM 64.0 °F 46.9 °F 54% 30.07 in 10.0 mi Calm Calm - N/A   Clear
11:51 AM 66.0 °F 45.0 °F 47% 30.06 in 10.0 mi Calm Calm - N/A   Clear
12:51 PM 66.0 °F 48.0 °F 52% 30.04 in 10.0 mi SW 8.1 mph - N/A   Clear
1:51 PM 64.9 °F 46.0 °F 50% 30.02 in 10.0 mi SW 8.1 mph - N/A   Clear
2:51 PM 64.9 °F 48.9 °F 56% 30.01 in 10.0 mi Variable 5.8 mph - N/A   Clear
3:51 PM 64.0 °F 52.0 °F 65% 30.00 in 10.0 mi SW 9.2 mph - N/A   Clear
4:51 PM 63.0 °F 52.0 °F 67% 30.00 in 10.0 mi WSW 9.2 mph - N/A   Clear
5:51 PM 62.1 °F 52.0 °F 70% 30.00 in 10.0 mi West 4.6 mph - N/A   Clear
6:51 PM 62.1 °F 53.1 °F 72% 30.01 in 10.0 mi Variable 3.5 mph - N/A   Clear
7:51 PM 61.0 °F 54.0 °F 78% 30.02 in 10.0 mi Calm Calm - N/A   Clear
8:51 PM 59.0 °F 48.9 °F 69% 30.02 in 10.0 mi Calm Calm - N/A   Clear
9:51 PM 57.9 °F 50.0 °F 75% 30.03 in 10.0 mi Calm Calm - N/A   Clear
10:51 PM 57.0 °F 51.1 °F 81% 30.05 in 9.0 mi Calm Calm - N/A   Clear
11:51 PM 57.0 °F 50.0 °F 77% 30.04 in 10.0 mi Calm Calm - N/A   Clear